Voltar ao catálogo

FENGYUN 1C DEB

AtivoPO
NORAD 32425·DEBRIS·🇨🇳 China

Lançado May 10, 1999 de Taiyuan Satellite Launch Center

Loading…

Próximas Passagens (próximas 24 horas)

TLE

EnvelhecendoSource: Space-Track

Época: Sep 11, 2026, 00:08 UTC

1 32425U 99025DAM 26254.00612266  .00000736  00000-0  29095-3 0  9997
2 32425  96.7248 341.2846 0231383 196.9584 162.3770 14.17374620733918

Acompanhe FENGYUN 1C DEB em tempo real com AllMySat

Download on the App Store